Wind_Speed
18 17 16 15 17 16 13 13 14 12 12 13 13 15 17 20 22 12 11 3 3 4 4 4 5 5 6 5 4 3 5 7 4 6 6 3 1 4 3 4 1 1 2 6 10
20 19 16 15 17 19 15 14 13 13 12 12 13 14 15 19 17 14 6 9 8 5 5 8 8 6 6 5 5 7 6 4 4 2 4 4 3 5 4 6 5 4 3 4 9
22 22 19 17 15 18 17 16 14 14 13 11 11 13 14 15 9 2 4 3 1 3 5 5 4 7 8 5 7 4 8 1 2 2 4 5 7 2 4 10 8 5 5 7 9
24 23 22 21 17 17 17 17 15 12 13 12 9 11 12 7 4 4 5 5 3 3 4 7 7 9 8 9 6 8 5 5 1 3 5 9 8 7 10 14 7 6 8 8 10
25 25 24 24 20 18 17 19 16 12 12 11 9 8 5 8 8 5 9 6 3 3 5 7 10 8 10 5 6 10 6 5 7 9 11 11 14 10 19 14 14 13 11 14 15
27 27 25 26 22 18 17 17 18 13 13 11 10 5 6 14 5 6 7 5 2 4 4 5 5 5 4 6 9 2 5 8 7 13 9 10 13 3 15 8 10 11 14 13 13
29 28 29 27 26 20 20 13 19 16 13 11 10 6 11 18 5 3 5 3 4 3 6 3 3 7 3 4 1 3 9 11 12 12 10 7 13 15 18 12 11 8 7 6 8
31 29 29 29 27 22 20 19 19 18 14 12 10 7 9 6 17 21 17 15 8 5 4 2 2 4 5 2 4 7 5 10 7 8 5 8 11 6 2 7 10 8 8 8 11
31 30 31 31 29 24 20 19 17 21 16 13 8 8 13 5 15 25 17 13 8 7 4 2 5 5 6 10 9 9 12 10 6 6 5 12 10 2 0 4 9 12 12 11 12
32 33 32 31 31 26 20 17 19 21 17 11 4 4 14 13 15 10 14 20 11 9 7 8 7 10 11 10 13 14 12 12 12 5 8 11 17 15 13 13 15 17 17 16 17
32 35 36 34 32 27 18 8 7 5 15 18 15 11 5 13 5 11 14 17 16 13 16 14 12 15 19 18 18 8 10 14 14 4 7 14 21 19 16 16 18 20 19 20 21
37 32 39 36 31 29 22 11 16 4 5 23 15 24 20 4 10 13 15 16 18 22 19 10 21 19 12 15 13 15 15 18 17 11 9 17 21 16 18 17 22 23 21 20 19
39 32 39 36 31 29 32 42 25 9 3 21 27 20 10 15 6 18 17 22 21 24 26 25 6 20 15 15 17 17 18 16 18 17 16 21 25 19 13 13 16 20 21 18 17
40 33 39 35 30 33 37 38 28 14 4 11 26 15 22 11 14 18 24 15 15 26 24 20 27 11 19 23 18 19 15 18 17 12 10 3 10 13 13 14 16 16 15 14 12
40 34 42 45 21 33 25 35 20 7 7 18 25 16 22 22 11 24 24 17 19 16 25 18 12 24 20 21 17 16 6 13 13 12 12 14 6 9 6 11 15 14 13 13 11
34 34 43 42 36 38 34 17 14 9 9 12 21 26 31 36 23 13 26 18 15 16 21 26 9 16 26 19 16 8 10 7 6 7 12 17 16 13 14 16 11 12 11 9 10
32 35 47 40 38 34 28 13 9 17 0 7 24 32 38 28 37 23 27 31 18 18 23 21 20 8 9 16 15 20 14 7 9 7 12 7 13 17 6 6 10 11 10 8 8
32 36 47 48 40 31 29 12 12 24 24 10 20 31 35 30 29 35 27 27 32 28 16 18 16 24 18 17 12 27 22 9 11 14 12 4 10 8 9 10 18 13 11 7 8
29 36 37 45 39 36 10 17 17 7 28 11 22 32 32 29 19 30 33 33 34 32 25 22 21 19 21 17 19 19 22 15 11 12 7 12 16 13 10 12 11 16 16 14 9
30 25 32 41 41 28 14 20 7 22 10 30 25 29 32 38 26 33 35 36 36 36 28 15 11 16 21 22 23 17 15 10 9 8 14 16 18 12 6 13 17 16 14 10 9
17 7 23 46 39 11 13 9 22 16 19 17 27 23 29 35 31 37 34 22 37 35 31 22 15 9 18 25 23 17 15 13 12 13 13 18 14 4 9 11 12 13 11 8 10
4 4 19 44 11 7 15 10 9 15 22 9 10 21 25 30 33 32 32 30 35 30 36 31 15 14 23 14 23 27 27 28 10 15 13 15 20 5 7 7 7 4 3 6 8
5 1 12 30 10 6 14 9 12 18 17 8 8 15 18 27 27 26 29 28 23 30 27 23 13 15 18 13 15 27 31 22 25 8 19 13 12 9 9 8 6 4 4 5 8
2 4 2 5 5 8 16 17 24 19 19 18 6 19 24 24 28 27 24 16 18 34 16 24 14 25 21 31 16 23 29 31 23 14 23 19 30 16 12 10 6 7 6 9 12
2 4 5 8 10 16 21 14 19 12 19 20 11 26 25 19 30 19 26 17 21 28 15 17 20 24 30 28 14 25 29 30 30 30 23 29 28 29 22 18 16 11 9 11 14
4 3 2 8 17 20 17 15 25 24 15 19 18 24 29 25 27 22 26 23 17 21 26 19 8 19 24 28 19 19 22 27 33 35 31 31 27 24 22 8 8 11 12 15 16
9 8 6 10 12 14 14 27 29 28 21 25 28 22 29 32 24 22 18 17 12 21 26 21 10 12 15 18 18 9 20 28 25 31 27 26 31 24 24 19 15 17 18 19 18
Wind_Direction
287 283 276 257 251 255 261 272 271 274 279 297 309 319 326 328 326 315 291 282 274 297 254 239 198 195 202 190 213 247 240 229 206 202 133 154 241 78 320 248 328 167 336 85 143
280 284 279 276 245 246 261 261 276 274 272 282 300 312 323 330 322 291 279 283 262 261 257 225 204 194 197 197 192 232 250 229 32 102 145 233 297 14 257 218 209 189 165 149 171
276 274 277 269 256 246 249 257 255 263 272 272 289 308 321 334 288 101 20 16 255 234 258 248 226 227 228 211 187 173 254 19 150 236 268 279 273 138 253 246 243 242 213 191 198
275 270 272 272 263 257 248 248 253 260 263 270 279 300 318 313 264 101 32 15 353 248 242 231 218 213 230 218 185 233 233 245 142 197 269 268 307 258 253 263 290 274 281 268 230
271 268 266 270 270 263 269 232 246 245 250 264 269 292 322 239 246 297 320 332 305 256 227 231 230 226 226 223 199 232 230 230 244 258 264 279 268 278 267 257 251 263 256 261 258
265 266 262 263 265 269 261 237 221 229 237 248 259 264 243 248 277 285 318 311 285 279 225 219 268 246 255 240 240 124 238 253 254 256 248 258 271 235 261 257 246 242 253 247 249
261 260 261 258 261 259 255 255 222 215 226 234 241 250 244 238 252 300 319 314 305 304 264 217 244 232 169 210 210 238 265 248 240 249 246 246 245 235 260 268 261 234 220 219 222
259 253 253 253 252 254 256 244 242 206 215 222 217 232 252 254 249 261 260 269 262 264 256 215 206 250 241 108 195 242 251 255 134 197 189 217 269 200 314 244 242 248 240 236 246
264 254 245 248 248 250 252 246 253 201 204 205 181 225 251 200 228 244 239 242 228 227 197 197 215 237 192 225 233 209 254 219 236 217 218 220 276 186 54 265 262 261 252 248 258
261 255 247 240 242 242 243 251 257 204 170 168 195 190 235 224 223 219 220 218 214 204 192 203 216 219 220 209 226 236 227 228 247 144 214 237 254 264 267 270 267 261 264 263 262
267 251 243 235 234 232 226 229 212 196 182 189 177 213 65 230 170 208 194 190 210 215 212 202 217 217 214 219 247 280 259 264 266 181 280 261 270 270 268 261 258 263 261 264 265
262 258 235 230 224 223 213 213 229 91 203 222 211 211 229 92 207 206 184 187 193 211 210 196 226 227 233 227 238 236 255 262 279 279 252 270 273 274 263 254 257 261 259 255 257
254 248 227 222 215 210 212 224 221 280 265 202 213 201 204 220 227 195 190 203 200 208 209 219 225 212 217 215 224 232 240 252 263 292 276 266 273 260 247 253 251 248 257 259 255
243 236 216 212 205 204 220 223 224 257 235 215 198 216 200 171 223 216 198 186 210 216 210 234 239 199 214 230 218 239 223 254 263 278 271 15 288 276 264 248 248 248 241 241 235
229 223 208 203 193 199 201 212 209 231 245 179 186 181 183 196 134 203 201 205 210 201 199 210 209 213 221 220 214 244 203 226 240 255 282 237 253 284 190 238 245 239 245 246 235
217 216 205 201 206 216 204 172 159 226 234 205 156 178 180 201 207 163 189 212 223 203 212 228 203 216 227 222 202 153 158 174 210 254 254 249 237 262 247 218 243 263 260 224 217
217 213 199 193 209 196 188 176 200 221 226 214 174 176 185 188 200 189 190 197 189 193 208 210 211 208 208 198 190 193 184 205 223 215 250 236 244 239 265 207 237 241 259 212 204
217 207 201 201 201 182 171 194 211 212 207 198 188 187 197 177 198 193 192 199 209 211 209 207 208 204 189 193 189 198 191 203 224 231 258 181 242 258 227 245 232 242 249 237 212
211 203 199 203 191 180 189 206 205 166 222 243 191 190 202 189 176 188 198 201 202 204 214 203 230 185 193 197 172 195 214 238 274 262 265 246 244 237 200 228 232 236 241 232 237
195 197 201 193 184 170 192 213 208 238 225 210 208 198 198 190 189 188 195 205 206 205 206 191 214 195 191 202 217 192 189 194 209 225 239 245 244 257 201 222 226 235 235 231 233
179 200 195 180 170 189 198 204 222 212 247 235 226 200 211 194 196 192 192 193 202 197 205 213 210 159 177 203 194 196 201 213 221 227 238 265 264 263 224 222 221 225 228 229 226
182 185 185 163 186 188 198 187 215 232 210 246 270 248 212 199 202 192 208 204 190 191 196 205 207 201 199 212 222 212 213 203 198 204 232 255 264 117 131 160 175 188 225 232 222
137 162 206 168 200 170 194 170 222 224 222 211 240 239 236 203 200 198 213 203 185 189 185 185 208 206 211 197 214 222 221 221 225 255 221 214 255 188 175 179 186 244 213 203 206
224 143 178 193 177 182 187 202 220 221 232 210 261 243 255 212 201 200 212 189 195 192 171 173 205 208 203 213 198 206 218 221 218 219 236 226 245 222 180 186 193 226 228 194 197
207 221 175 178 185 196 205 197 209 219 214 204 237 237 261 212 200 209 204 180 195 199 181 181 205 207 225 220 204 209 214 213 216 219 221 237 238 247 251 248 270 258 232 202 198
196 198 197 174 192 189 200 211 225 219 204 217 219 223 236 245 202 197 192 188 179 191 190 194 206 205 227 229 226 233 217 220 219 226 231 242 247 247 252 252 237 216 208 206 205
191 214 172 163 171 178 196 217 226 224 224 219 209 230 220 230 232 222 199 192 176 177 188 191 197 187 223 211 214 233 225 218 220 225 230 233 243 246 256 256 236 237 216 211 204
Height
809 809 809 808 810 810 812 813 813 813 814 814 814 813 811 807 803 801 798 797 796 795 795 795 794 793 792 788 788 785 788 783 781 786 782 779 780 776 774 772 772 771 770 774 778
806 806 806 806 805 807 809 810 811 811 812 812 812 812 810 807 803 798 796 794 794 794 795 792 789 789 785 785 786 785 787 779 779 779 782 780 780 781 777 773 773 772 773 776 778
803 803 804 804 803 803 805 807 808 810 810 810 810 811 810 807 801 791 793 793 793 793 794 793 790 787 786 783 784 784 786 779 781 782 780 778 779 779 780 779 768 771 768 770 774
799 799 800 801 801 801 801 804 805 807 808 809 809 809 809 809 801 792 793 793 793 793 793 791 788 787 786 787 781 791 782 784 780 783 782 781 774 781 778 771 765 765 767 767 769
794 795 796 797 798 798 799 800 802 804 806 807 808 808 809 804 795 793 793 793 794 793 790 788 787 784 787 782 785 788 782 785 782 784 781 778 779 780 773 765 765 765 766 766 765
789 790 791 793 795 795 797 796 798 801 803 805 807 807 808 806 793 792 792 793 793 792 789 788 785 783 784 785 787 784 785 782 781 779 778 784 775 780 760 755 761 762 761 759 759
783 784 785 788 790 793 794 794 796 797 800 802 806 807 803 791 792 792 792 793 793 792 789 789 788 786 782 787 787 787 791 776 775 774 777 776 781 773 757 752 758 756 755 755 756
775 778 780 783 787 789 791 792 793 794 797 800 804 806 792 788 790 789 791 792 792 792 792 791 789 786 785 787 788 789 790 784 769 773 772 776 774 753 752 756 756 753 752 754 752
767 770 774 778 781 785 788 790 789 792 794 798 803 803 788 784 784 784 788 788 789 791 790 791 788 785 787 789 790 787 783 782 773 768 768 773 767 756 757 759 762 755 749 747 748
759 762 767 772 776 781 785 787 786 787 791 798 799 804 784 775 776 778 781 786 786 787 788 788 785 785 783 782 788 776 786 774 775 768 772 768 766 757 754 756 756 749 744 743 741
752 754 759 765 772 778 785 788 787 781 776 763 769 770 764 771 775 774 777 782 784 784 787 783 788 781 773 774 767 777 776 773 761 765 781 769 760 752 749 751 748 741 737 734 731
742 745 750 758 766 773 780 776 764 766 769 768 763 767 764 770 769 768 774 774 778 779 779 788 780 766 767 770 779 780 781 773 761 761 776 762 752 746 745 744 738 732 727 725 722
730 735 742 752 761 767 766 757 765 764 763 753 758 760 764 770 764 759 766 763 768 772 768 772 759 762 772 779 784 779 779 772 772 761 762 758 751 736 730 732 725 720 717 716 717
719 726 735 747 760 757 753 757 765 768 762 744 747 747 755 759 762 755 757 759 763 760 763 768 757 768 771 775 773 776 766 775 774 778 770 765 760 734 729 728 720 714 711 711 713
707 717 726 733 739 743 739 756 766 770 743 719 722 731 737 743 735 745 752 754 754 757 758 752 761 760 771 760 763 771 768 774 772 772 773 761 774 726 725 729 718 709 705 704 707
698 707 718 728 732 728 746 755 765 763 724 703 700 713 726 732 734 733 744 748 747 753 754 747 749 752 748 752 761 763 774 777 776 773 777 749 752 731 717 716 711 703 700 702 704
691 699 706 715 705 728 740 751 753 732 718 703 697 703 703 715 727 729 741 743 741 757 752 749 748 750 750 757 760 764 769 779 784 783 756 724 732 727 710 705 704 705 699 699 705
685 692 697 700 715 726 735 742 730 712 716 687 691 698 698 694 712 717 727 735 731 726 726 743 754 744 741 739 751 756 754 752 772 753 736 735 737 714 697 697 698 697 700 699 708
682 687 692 697 710 718 725 716 712 697 697 703 685 692 693 686 690 707 708 707 707 711 723 727 728 717 728 732 735 750 749 736 754 742 755 721 704 692 703 701 702 699 698 700 703
672 680 682 692 704 708 715 707 707 693 693 690 686 676 678 672 679 688 692 687 697 699 700 704 730 720 728 732 728 730 731 763 755 768 760 715 711 704 705 704 700 699 699 698 702
670 673 673 685 696 697 694 701 697 696 695 696 686 668 661 665 665 669 665 662 679 692 697 699 711 729 721 723 723 732 734 732 729 733 737 726 705 670 685 687 691 690 689 693 700
664 668 670 668 678 687 686 694 690 682 693 701 693 667 654 658 667 667 661 660 658 672 694 689 706 721 721 710 710 709 714 716 731 727 730 724 694 680 682 682 688 689 692 693 697
664 674 667 666 665 675 681 685 685 675 681 701 694 676 653 648 666 660 660 652 656 669 681 691 705 717 718 719 715 707 701 706 709 710 717 732 703 674 684 689 690 692 691 696 699
666 662 666 663 669 671 673 668 672 675 674 681 690 680 663 651 649 653 654 654 658 659 670 676 683 685 687 677 686 714 700 697 705 728 707 703 686 683 693 691 692 692 692 692 699
661 653 648 654 665 664 662 661 667 671 670 674 680 684 678 658 648 645 647 656 661 662 674 675 681 677 667 663 673 679 688 690 700 696 704 686 685 670 673 674 677 681 686 691 699
653 650 645 638 648 654 657 660 653 661 662 667 679 673 670 661 638 639 636 646 648 658 664 666 676 673 680 672 672 679 674 680 680 677 684 677 677 661 664 671 681 684 686 691 696
644 639 629 642 640 653 651 644 642 647 650 650 658 663 651 646 629 624 626 633 632 647 657 666 670 676 687 676 681 704 682 663 667 667 670 680 656 662 662 665 678 677 679 682 686